| time (UTC) | temp F | wind direction | speed MPH | gust MPH | rain 1hr in | rain 24hr in | rain mn in | humidity % | barometer mb |
| 20260507205306 | 51 | 135 | 6.0 | 9.0 | 0.00 | 0.01 | 0.00 | 38 | 1024.3 |
| 20260507204304 | 50 | 135 | 5.0 | 9.0 | 0.00 | 0.01 | 0.00 | 39 | 1024.3 |
| 20260507203803 | 49 | 128 | 7.0 | 10.0 | 0.00 | 0.01 | 0.00 | 39 | 1024.3 |
| 20260507203304 | 49 | 112 | 8.0 | 10.0 | 0.00 | 0.02 | 0.00 | 38 | 1024.3 |
| 20260507202803 | 49 | 135 | 6.0 | 8.0 | 0.00 | 0.02 | 0.00 | 37 | 1024.3 |
| 20260507202306 | 49 | 135 | 7.0 | 9.0 | 0.00 | 0.02 | 0.00 | 37 | 1024.4 |
| 20260507201804 | 49 | 135 | 4.0 | 7.0 | 0.00 | 0.02 | 0.00 | 37 | 1024.7 |
| 20260507201304 | 49 | 130 | 4.0 | 6.0 | 0.00 | 0.03 | 0.00 | 36 | 1024.7 |
| 20260507200803 | 49 | 129 | 5.0 | 7.0 | 0.00 | 0.03 | 0.00 | 37 | 1024.7 |
| 20260507200303 | 49 | 112 | 5.0 | 8.0 | 0.00 | 0.04 | 0.00 | 38 | 1024.7 |
| 20260507195804 | 49 | 90 | 6.0 | 7.0 | 0.00 | 0.04 | 0.00 | 40 | 1024.7 |
| 20260507194804 | 48 | 135 | 3.0 | 3.0 | 0.00 | 0.06 | 0.00 | 39 | 1024.7 |
| 20260507194303 | 48 | 135 | 4.0 | 5.0 | 0.00 | 0.07 | 0.00 | 39 | 1024.7 |
| 20260507193804 | 48 | 126 | 3.0 | 5.0 | 0.00 | 0.08 | 0.00 | 38 | 1024.7 |
| 20260507193303 | 48 | 112 | 5.0 | 6.0 | 0.00 | 0.09 | 0.00 | 37 | 1024.7 |
| 20260507192804 | 48 | 135 | 3.0 | 6.0 | 0.00 | 0.11 | 0.00 | 37 | 1024.7 |
| 20260507192306 | 47 | 135 | 5.0 | 6.0 | 0.00 | 0.13 | 0.00 | 36 | 1024.7 |
| 20260507191803 | 48 | 135 | 6.0 | 7.0 | 0.00 | 0.15 | 0.00 | 35 | 1024.7 |
| 20260507191303 | 48 | 135 | 5.0 | 6.0 | 0.00 | 0.17 | 0.00 | 37 | 1024.7 |
| 20260507190804 | 49 | 135 | 5.0 | 6.0 | 0.00 | 0.18 | 0.00 | 37 | 1024.7 |
| 20260507190304 | 50 | 135 | 3.0 | 5.0 | 0.00 | 0.19 | 0.00 | 36 | 1024.7 |
| 20260507185803 | 51 | 180 | 2.0 | 3.0 | 0.00 | 0.20 | 0.00 | 35 | 1025.0 |
| 20260507185306 | 51 | 202 | 2.0 | 2.0 | 0.00 | 0.21 | 0.00 | 36 | 1025.0 |
| 20260507184804 | 51 | 225 | 3.0 | 3.0 | 0.00 | 0.22 | 0.00 | 36 | 1025.4 |
| 20260507182306 | 53 | 90 | 1.0 | 1.0 | 0.00 | 0.24 | 0.00 | 35 | 1025.4 |
| 20260507181803 | 52 | 90 | 0.0 | 0.0 | 0.00 | 0.24 | 0.00 | 38 | 1025.4 |
| 20260507181304 | 52 | 90 | 0.0 | 2.0 | 0.00 | 0.24 | 0.00 | 39 | 1025.7 |
| 20260507180803 | 52 | 90 | 2.0 | 3.0 | 0.00 | 0.24 | 0.00 | 38 | 1025.7 |
| 20260507180304 | 53 | 157 | 0.0 | 2.0 | 0.00 | 0.24 | 0.00 | 35 | 1025.7 |
| 20260507175306 | 54 | 225 | 0.0 | 1.0 | 0.00 | 0.24 | 0.00 | 32 | 1025.7 |
| 20260507174804 | 53 | 225 | 0.0 | 1.0 | 0.00 | 0.24 | 0.00 | 33 | 1025.7 |
| 20260507174304 | 52 | 225 | 0.0 | 2.0 | 0.00 | 0.24 | 0.00 | 34 | 1025.7 |
| 20260507173804 | 50 | 225 | 1.0 | 1.0 | 0.00 | 0.24 | 0.00 | 36 | 1025.7 |
| 20260507173304 | 47 | 225 | 0.0 | 2.0 | 0.00 | 0.24 | 0.00 | 41 | 1025.7 |
| 20260507172803 | 44 | 225 | 2.0 | 2.0 | 0.00 | 0.24 | 0.00 | 45 | 1025.7 |
| 20260507172307 | 42 | 225 | 2.0 | 3.0 | 0.00 | 0.24 | 0.00 | 46 | 1025.7 |
| 20260507171804 | 42 | 225 | 2.0 | 5.0 | 0.00 | 0.24 | 0.00 | 47 | 1025.7 |
| 20260507171304 | 42 | 225 | 3.0 | 5.0 | 0.00 | 0.24 | 0.00 | 46 | 1025.7 |
| 20260507170804 | 45 | 270 | 3.0 | 3.0 | 0.00 | 0.24 | 0.00 | 44 | 1025.7 |
| 20260507165803 | 47 | 0 | 3.0 | 3.0 | 0.00 | 0.24 | 0.00 | 46 | 1026.0 |
| 20260507165306 | 44 | 0 | 2.0 | 3.0 | 0.00 | 0.24 | 0.00 | 49 | 1025.7 |
| 20260507164804 | 44 | 37 | 4.0 | 6.0 | 0.00 | 0.24 | 0.00 | 48 | 1025.7 |
| 20260507164304 | 46 | 90 | 4.0 | 6.0 | 0.00 | 0.24 | 0.00 | 44 | 1025.7 |
| 20260507163804 | 49 | 95 | 1.0 | 5.0 | 0.00 | 0.25 | 0.00 | 41 | 1025.7 |
| 20260507163304 | 50 | 180 | 1.0 | 2.0 | 0.00 | 0.25 | 0.00 | 39 | 1025.7 |
| 20260507162804 | 51 | 180 | 2.0 | 5.0 | 0.00 | 0.25 | 0.00 | 37 | 1025.7 |
| 20260507162306 | 51 | 180 | 2.0 | 3.0 | 0.00 | 0.26 | 0.00 | 36 | 1025.7 |
| 20260507161304 | 49 | 90 | 0.0 | 0.0 | 0.00 | 0.28 | 0.00 | 39 | 1025.7 |
| 20260507160804 | 50 | 90 | 0.0 | 2.0 | 0.00 | 0.28 | 0.00 | 39 | 1026.0 |
| 20260507155804 | 51 | 90 | 2.0 | 3.0 | 0.00 | 0.30 | 0.00 | 36 | 1025.7 |
| 20260507154803 | 49 | 90 | 0.0 | 0.0 | 0.00 | 0.31 | 0.00 | 41 | 1026.0 |
| 20260507154304 | 49 | 90 | 1.0 | 3.0 | 0.00 | 0.31 | 0.00 | 40 | 1026.0 |
| 20260507153304 | 45 | 90 | 0.0 | 0.0 | 0.00 | 0.31 | 0.00 | 46 | 1026.0 |
| 20260507152804 | 41 | 90 | 0.0 | 0.0 | 0.00 | 0.31 | 0.00 | 50 | 1026.0 |
| 20260507152306 | 41 | 90 | 1.0 | 1.0 | 0.00 | 0.31 | 0.00 | 47 | 1026.0 |
| 20260507151803 | 44 | 90 | 0.0 | 1.0 | 0.00 | 0.31 | 0.00 | 42 | 1026.0 |
| 20260507151304 | 44 | 90 | 0.0 | 0.0 | 0.00 | 0.31 | 0.00 | 43 | 1026.0 |
| 20260507150804 | 43 | 90 | 0.0 | 1.0 | 0.00 | 0.31 | 0.00 | 47 | 1026.0 |
| 20260507150304 | 41 | 0 | 0.0 | 2.0 | 0.00 | 0.31 | 0.00 | 51 | 1026.0 |
| 20260507145804 | 38 | 0 | 1.0 | 2.0 | 0.00 | 0.31 | 0.00 | 55 | 1025.7 |
| 20260507145306 | 36 | 225 | 0.0 | 2.0 | 0.00 | 0.31 | 0.00 | 55 | 1025.7 |
| 20260507144804 | 37 | 225 | 3.0 | 5.0 | 0.00 | 0.31 | 0.00 | 54 | 1025.7 |
| 20260507144304 | 37 | 225 | 4.0 | 5.0 | 0.00 | 0.31 | 0.00 | 52 | 1025.7 |
| 20260507143804 | 36 | 238 | 3.0 | 5.0 | 0.00 | 0.31 | 0.00 | 52 | 1026.0 |
| 20260507143304 | 34 | 270 | 2.0 | 3.0 | 0.00 | 0.31 | 0.00 | 53 | 1026.0 |
| 20260507142804 | 33 | 270 | 2.0 | 3.0 | 0.00 | 0.31 | 0.00 | 54 | 1025.7 |
| 20260507142306 | 32 | 270 | 3.0 | 3.0 | 0.00 | 0.31 | 0.00 | 55 | 1025.7 |
| 20260507141802 | 32 | 270 | 3.0 | 5.0 | 0.00 | 0.31 | 0.00 | 56 | 1025.7 |
| 20260507141302 | 32 | 270 | 2.0 | 3.0 | 0.00 | 0.31 | 0.00 | 57 | 1025.7 |
| 20260507140802 | 33 | 270 | 3.0 | 5.0 | 0.00 | 0.31 | 0.00 | 56 | 1025.7 |
| 20260507140303 | 35 | 225 | 3.0 | 3.0 | 0.00 | 0.31 | 0.00 | 54 | 1025.7 |
| 20260507135802 | 35 | 247 | 2.0 | 3.0 | 0.00 | 0.31 | 0.00 | 54 | 1025.7 |
| 20260507135306 | 33 | 270 | 2.0 | 2.0 | 0.00 | 0.31 | 0.00 | 57 | 1025.7 |
| 20260507134802 | 32 | 270 | 2.0 | 3.0 | 0.00 | 0.31 | 0.00 | 57 | 1025.7 |
| 20260507133802 | 32 | 315 | 3.0 | 5.0 | 0.00 | 0.31 | 0.00 | 54 | 1025.7 |
| 20260507131302 | 30 | 274 | 3.0 | 5.0 | 0.00 | 0.31 | 0.00 | 49 | 1025.0 |
| 20260507130803 | 30 | 225 | 4.0 | 7.0 | 0.00 | 0.31 | 0.00 | 51 | 1025.0 |
| 20260507130302 | 29 | 225 | 7.0 | 9.0 | 0.00 | 0.31 | 0.00 | 56 | 1024.7 |
| 20260507125306 | 27 | 225 | 10.0 | 12.0 | 0.00 | 0.31 | 0.00 | 61 | 1024.7 |
| 20260507124802 | 28 | 225 | 10.0 | 12.0 | 0.00 | 0.31 | 0.00 | 59 | 1024.7 |
| 20260507124302 | 29 | 225 | 7.0 | 9.0 | 0.00 | 0.31 | 0.00 | 57 | 1025.0 |
| 20260507123803 | 28 | 247 | 6.0 | 8.0 | 0.00 | 0.31 | 0.00 | 58 | 1025.0 |
| 20260507122802 | 28 | 257 | 7.0 | 8.0 | 0.00 | 0.31 | 0.00 | 59 | 1025.0 |
| 20260507122306 | 26 | 270 | 5.0 | 7.0 | 0.00 | 0.31 | 0.00 | 61 | 1024.7 |
| 20260507121802 | 24 | 225 | 5.0 | 8.0 | 0.00 | 0.31 | 0.00 | 63 | 1024.7 |
| 20260507121303 | 24 | 225 | 8.0 | 9.0 | 0.00 | 0.31 | 0.00 | 61 | 1024.7 |
| 20260507115302 | 26 | 270 | 4.0 | 8.0 | 0.00 | 0.31 | 0.00 | 60 | 1024.7 |
| 20260507114802 | 27 | 225 | 7.0 | 8.0 | 0.00 | 0.31 | 0.00 | 60 | 1024.3 |
| 20260507114302 | 27 | 225 | 6.0 | 8.0 | 0.00 | 0.31 | 0.00 | 61 | 1024.3 |
| 20260507113802 | 24 | 225 | 7.0 | 10.0 | 0.00 | 0.31 | 0.00 | 64 | 1024.3 |
| 20260507113303 | 22 | 225 | 9.0 | 10.0 | 0.00 | 0.31 | 0.00 | 67 | 1024.3 |
| 20260507112803 | 22 | 210 | 7.0 | 9.0 | 0.00 | 0.31 | 0.00 | 63 | 1024.7 |
| 20260507112306 | 25 | 225 | 8.0 | 9.0 | 0.00 | 0.31 | 0.00 | 55 | 1024.4 |
| 20260507111802 | 27 | 225 | 8.0 | 10.0 | 0.00 | 0.31 | 0.00 | 54 | 1024.3 |
| 20260507111302 | 27 | 270 | 6.0 | 9.0 | 0.00 | 0.31 | 0.00 | 56 | 1024.3 |
| 20260507110803 | 27 | 225 | 9.0 | 10.0 | 0.00 | 0.31 | 0.00 | 57 | 1024.3 |
| 20260507110302 | 27 | 225 | 9.0 | 10.0 | 0.00 | 0.31 | 0.00 | 57 | 1024.3 |
| 20260507105802 | 27 | 225 | 6.0 | 9.0 | 0.00 | 0.31 | 0.00 | 58 | 1024.7 |
| 20260507105306 | 26 | 225 | 7.0 | 10.0 | 0.00 | 0.31 | 0.00 | 59 | 1024.3 |
| 20260507104803 | 25 | 225 | 5.0 | 8.0 | 0.00 | 0.31 | 0.00 | 62 | 1024.3 |
| 20260507104302 | 23 | 315 | 0.0 | 5.0 | 0.00 | 0.31 | 0.00 | 65 | 1024.7 |
| 20260507103803 | 21 | 225 | 5.0 | 8.0 | 0.00 | 0.31 | 0.00 | 69 | 1024.3 |
| 20260507102306 | 22 | 225 | 12.0 | 13.0 | 0.00 | 0.31 | 0.00 | 69 | 1024.7 |
| 20260507101302 | 22 | 225 | 12.0 | 14.0 | 0.00 | 0.31 | 0.00 | 69 | 1024.4 |
| 20260507100803 | 23 | 225 | 13.0 | 15.0 | 0.00 | 0.31 | 0.00 | 65 | 1024.7 |
| 20260507100302 | 25 | 225 | 12.0 | 14.0 | 0.00 | 0.31 | 0.00 | 63 | 1024.7 |
| 20260507095803 | 26 | 225 | 9.0 | 10.0 | 0.00 | 0.31 | 0.00 | 63 | 1024.7 |
| 20260507095305 | 26 | 225 | 9.0 | 10.0 | 0.00 | 0.31 | 0.00 | 64 | 1024.7 |
| 20260507094803 | 26 | 225 | 8.0 | 9.0 | 0.00 | 0.31 | 0.00 | 64 | 1024.7 |
| 20260507093803 | 27 | 225 | 6.0 | 7.0 | 0.00 | 0.31 | 0.00 | 63 | 1025.0 |
| 20260507093302 | 27 | 247 | 7.0 | 8.0 | 0.00 | 0.31 | 0.00 | 63 | 1024.7 |
| 20260507092802 | 27 | 247 | 7.0 | 10.0 | 0.00 | 0.31 | 0.00 | 64 | 1025.0 |
| 20260507092306 | 27 | 247 | 6.0 | 8.0 | 0.00 | 0.31 | 0.00 | 65 | 1024.7 |
| 20260507091802 | 26 | 247 | 7.0 | 8.0 | 0.00 | 0.31 | 0.00 | 66 | 1024.7 |
| 20260507090802 | 27 | 270 | 8.0 | 10.0 | 0.00 | 0.31 | 0.00 | 63 | 1024.7 |
| 20260507085802 | 27 | 270 | 4.0 | 7.0 | 0.00 | 0.31 | 0.00 | 63 | 1024.7 |
| 20260507085306 | 26 | 247 | 6.0 | 7.0 | 0.00 | 0.31 | 0.00 | 64 | 1024.7 |
| 20260507083802 | 25 | 263 | 9.0 | 12.0 | 0.00 | 0.31 | 0.00 | 66 | 1024.7 |
| 20260507083303 | 25 | 247 | 10.0 | 10.0 | 0.00 | 0.31 | 0.00 | 65 | 1024.7 |
| 20260507082803 | 25 | 247 | 10.0 | 10.0 | 0.00 | 0.31 | 0.00 | 65 | 1024.7 |
| 20260507082306 | 25 | 225 | 9.0 | 10.0 | 0.00 | 0.31 | 0.00 | 64 | 1024.3 |
| 20260507081303 | 24 | 225 | 10.0 | 12.0 | 0.00 | 0.31 | 0.00 | 65 | 1024.7 |
| 20260507080802 | 24 | 225 | 10.0 | 10.0 | 0.00 | 0.31 | 0.00 | 67 | 1024.3 |
| 20260507075803 | 25 | 225 | 8.0 | 10.0 | 0.00 | 0.31 | 0.00 | 66 | 1024.7 |
| 20260507075306 | 25 | 225 | 9.0 | 9.0 | 0.00 | 0.31 | 0.00 | 66 | 1024.7 |
| 20260507073803 | 28 | 236 | 9.0 | 10.0 | 0.00 | 0.31 | 0.00 | 67 | 1024.7 |
| 20260507073303 | 28 | 247 | 7.0 | 9.0 | 0.00 | 0.31 | 0.00 | 67 | 1024.7 |
| 20260507071803 | 27 | 266 | 8.0 | 9.0 | 0.00 | 0.31 | 0.00 | 68 | 1024.7 |
| 20260507071302 | 27 | 270 | 8.0 | 9.0 | 0.00 | 0.31 | 0.00 | 67 | 1024.7 |
| 20260507070803 | 27 | 270 | 7.0 | 9.0 | 0.00 | 0.31 | 0.00 | 67 | 1024.7 |
| 20260507070302 | 27 | 270 | 7.0 | 8.0 | 0.00 | 0.31 | 0.00 | 67 | 1024.7 |
| 20260507065803 | 27 | 270 | 7.0 | 9.0 | 0.00 | 0.31 | 0.00 | 66 | 1024.7 |
| 20260507065306 | 27 | 270 | 7.0 | 8.0 | 0.00 | 0.31 | 0.00 | 67 | 1024.7 |
| 20260507064803 | 27 | 270 | 7.0 | 10.0 | 0.00 | 0.31 | 0.00 | 66 | 1024.7 |
| 20260507063803 | 27 | 270 | 8.0 | 9.0 | 0.00 | 0.31 | 0.00 | 66 | 1024.7 |
| 20260507063302 | 27 | 247 | 8.0 | 10.0 | 0.00 | 0.31 | 0.00 | 66 | 1024.7 |
| 20260507062305 | 28 | 247 | 6.0 | 8.0 | 0.00 | 0.31 | 0.00 | 67 | 1024.7 |
| 20260507061803 | 27 | 247 | 9.0 | 9.0 | 0.00 | 0.31 | 0.00 | 67 | 1024.4 |
| 20260507061302 | 28 | 247 | 9.0 | 9.0 | 0.00 | 0.31 | 0.00 | 67 | 1024.4 |
| 20260507060902 | 28 | 247 | 7.0 | 9.0 | 0.00 | 0.31 | 0.00 | 67 | 1024.4 |
| 20260507060302 | 28 | 247 | 7.0 | 8.0 | 0.00 | 0.31 | 0.00 | 67 | 1024.3 |
| 20260507055803 | 27 | 247 | 6.0 | 8.0 | 0.00 | 0.31 | 0.31 | 68 | 1024.3 |
| 20260507055305 | 27 | 254 | 7.0 | 9.0 | 0.00 | 0.31 | 0.31 | 68 | 1024.3 |
| 20260507054803 | 28 | 270 | 7.0 | 8.0 | 0.00 | 0.31 | 0.31 | 67 | 1024.3 |
| 20260507054303 | 28 | 270 | 5.0 | 7.0 | 0.00 | 0.31 | 0.31 | 67 | 1024.3 |
| 20260507052803 | 29 | 225 | 2.0 | 6.0 | 0.00 | 0.31 | 0.31 | 66 | 1024.1 |
| 20260507052306 | 28 | 225 | 7.0 | 8.0 | 0.00 | 0.31 | 0.31 | 67 | 1024.0 |
| 20260507051802 | 28 | 225 | 4.0 | 8.0 | 0.00 | 0.31 | 0.31 | 67 | 1024.0 |
| 20260507051303 | 28 | 225 | 7.0 | 9.0 | 0.00 | 0.31 | 0.31 | 67 | 1024.0 |
| 20260507050802 | 27 | 225 | 7.0 | 9.0 | 0.00 | 0.31 | 0.31 | 67 | 1024.0 |
| 20260507045803 | 27 | 213 | 7.0 | 10.0 | 0.00 | 0.31 | 0.31 | 68 | 1024.0 |
| 20260507045306 | 27 | 225 | 6.0 | 9.0 | 0.00 | 0.31 | 0.31 | 69 | 1024.0 |
| 20260507044802 | 26 | 225 | 6.0 | 9.0 | 0.00 | 0.31 | 0.31 | 70 | 1024.0 |
| 20260507044303 | 25 | 225 | 6.0 | 8.0 | 0.00 | 0.31 | 0.31 | 71 | 1023.7 |
| 20260507043803 | 25 | 225 | 8.0 | 10.0 | 0.00 | 0.31 | 0.31 | 71 | 1023.9 |
| 20260507043302 | 25 | 225 | 10.0 | 12.0 | 0.00 | 0.31 | 0.31 | 71 | 1023.7 |
| 20260507042803 | 25 | 225 | 9.0 | 10.0 | 0.00 | 0.31 | 0.31 | 71 | 1023.7 |
| 20260507042306 | 25 | 225 | 9.0 | 10.0 | 0.00 | 0.31 | 0.31 | 71 | 1023.7 |
| 20260507041803 | 26 | 225 | 9.0 | 10.0 | 0.00 | 0.31 | 0.31 | 71 | 1023.7 |
| 20260507041302 | 25 | 225 | 6.0 | 7.0 | 0.00 | 0.31 | 0.31 | 73 | 1023.7 |
| 20260507040302 | 24 | 202 | 5.0 | 10.0 | 0.00 | 0.31 | 0.31 | 73 | 1023.4 |
| 20260507035802 | 24 | 189 | 5.0 | 8.0 | 0.00 | 0.31 | 0.31 | 72 | 1023.3 |
| 20260507035306 | 24 | 196 | 7.0 | 8.0 | 0.00 | 0.31 | 0.31 | 73 | 1023.3 |
| 20260507034802 | 24 | 225 | 7.0 | 8.0 | 0.00 | 0.31 | 0.31 | 74 | 1023.7 |
| 20260507034303 | 24 | 225 | 6.0 | 8.0 | 0.00 | 0.31 | 0.31 | 74 | 1023.6 |
| 20260507033803 | 24 | 225 | 5.0 | 8.0 | 0.00 | 0.31 | 0.31 | 74 | 1023.7 |
| 20260507033302 | 24 | 225 | 8.0 | 9.0 | 0.00 | 0.31 | 0.31 | 74 | 1023.3 |
| 20260507032803 | 24 | 224 | 6.0 | 9.0 | 0.00 | 0.31 | 0.31 | 74 | 1023.3 |
| 20260507032305 | 24 | 225 | 7.0 | 8.0 | 0.00 | 0.31 | 0.31 | 74 | 1023.3 |
| 20260507031802 | 24 | 182 | 6.0 | 9.0 | 0.00 | 0.31 | 0.31 | 73 | 1023.3 |
| 20260507031303 | 24 | 185 | 5.0 | 8.0 | 0.00 | 0.31 | 0.31 | 74 | 1023.3 |
| 20260507030303 | 24 | 193 | 6.0 | 9.0 | 0.00 | 0.31 | 0.31 | 73 | 1023.3 |
| 20260507025803 | 24 | 210 | 6.0 | 10.0 | 0.00 | 0.32 | 0.31 | 73 | 1023.1 |
| 20260507024803 | 25 | 225 | 8.0 | 9.0 | 0.00 | 0.32 | 0.31 | 73 | 1023.0 |
| 20260507024302 | 25 | 225 | 2.0 | 6.0 | 0.00 | 0.32 | 0.31 | 73 | 1023.3 |
| 20260507023803 | 25 | 225 | 5.0 | 8.0 | 0.00 | 0.32 | 0.31 | 73 | 1023.3 |
| 20260507023303 | 26 | 225 | 4.0 | 7.0 | 0.00 | 0.32 | 0.31 | 73 | 1023.1 |
| 20260507022803 | 26 | 225 | 5.0 | 9.0 | 0.00 | 0.32 | 0.31 | 73 | 1023.0 |
| 20260507022306 | 26 | 225 | 5.0 | 8.0 | 0.00 | 0.32 | 0.31 | 74 | 1023.0 |
| 20260507021803 | 25 | 225 | 3.0 | 7.0 | 0.00 | 0.32 | 0.31 | 74 | 1023.0 |
| 20260507021303 | 25 | 225 | 6.0 | 8.0 | 0.00 | 0.33 | 0.31 | 75 | 1023.0 |
| 20260507020802 | 25 | 225 | 5.0 | 7.0 | 0.00 | 0.33 | 0.31 | 77 | 1023.0 |
| 20260507020303 | 24 | 225 | 6.0 | 7.0 | 0.00 | 0.33 | 0.31 | 78 | 1023.0 |
| 20260507015306 | 25 | 225 | 7.0 | 9.0 | 0.00 | 0.33 | 0.31 | 76 | 1023.0 |
| 20260507014803 | 25 | 225 | 6.0 | 7.0 | 0.00 | 0.33 | 0.31 | 76 | 1023.0 |
| 20260507014303 | 25 | 225 | 5.0 | 8.0 | 0.00 | 0.33 | 0.31 | 77 | 1023.0 |
| 20260507013803 | 26 | 225 | 7.0 | 8.0 | 0.00 | 0.33 | 0.31 | 77 | 1023.0 |
| 20260507013302 | 26 | 225 | 6.0 | 7.0 | 0.00 | 0.33 | 0.31 | 77 | 1023.0 |
| 20260507012803 | 26 | 225 | 6.0 | 6.0 | 0.00 | 0.33 | 0.31 | 76 | 1022.9 |
| 20260507012306 | 27 | 225 | 3.0 | 5.0 | 0.00 | 0.33 | 0.31 | 73 | 1022.7 |
| 20260507011802 | 28 | 180 | 3.0 | 5.0 | 0.00 | 0.33 | 0.31 | 71 | 1022.9 |
| 20260507010803 | 28 | 225 | 5.0 | 6.0 | 0.00 | 0.34 | 0.31 | 71 | 1023.0 |
| 20260507005802 | 29 | 225 | 5.0 | 6.0 | 0.00 | 0.34 | 0.31 | 69 | 1023.0 |
| 20260507005305 | 29 | 225 | 3.0 | 5.0 | 0.00 | 0.34 | 0.31 | 69 | 1023.0 |
| 20260507004303 | 29 | 180 | 1.0 | 2.0 | 0.00 | 0.35 | 0.31 | 69 | 1023.0 |
| 20260507003803 | 30 | 180 | 0.0 | 2.0 | 0.00 | 0.35 | 0.31 | 68 | 1023.0 |
| 20260507003303 | 30 | 180 | 2.0 | 2.0 | 0.00 | 0.35 | 0.31 | 67 | 1023.0 |
| 20260507002803 | 30 | 180 | 2.0 | 2.0 | 0.00 | 0.36 | 0.31 | 66 | 1022.7 |
| 20260507002305 | 31 | 180 | 2.0 | 3.0 | 0.00 | 0.36 | 0.31 | 66 | 1022.9 |
| 20260507001803 | 32 | 225 | 2.0 | 2.0 | 0.00 | 0.36 | 0.31 | 66 | 1023.0 |
| 20260507001302 | 32 | 225 | 2.0 | 2.0 | 0.00 | 0.36 | 0.31 | 67 | 1022.7 |
| 20260507000803 | 32 | 225 | 2.0 | 3.0 | 0.00 | 0.36 | 0.31 | 67 | 1023.0 |
| 20260507000303 | 31 | 225 | 2.0 | 3.0 | 0.00 | 0.36 | 0.31 | 67 | 1022.9 |
| 20260506235803 | 31 | 292 | 0.0 | 0.0 | 0.00 | 0.37 | 0.31 | 67 | 1023.0 |
| 20260506235306 | 31 | 292 | 0.0 | 0.0 | 0.00 | 0.37 | 0.31 | 69 | 1022.7 |
| 20260506234803 | 29 | 292 | 0.0 | 0.0 | 0.00 | 0.37 | 0.31 | 72 | 1022.7 |
| 20260506234303 | 28 | 292 | 2.0 | 3.0 | 0.00 | 0.37 | 0.31 | 73 | 1022.9 |
| 20260506233802 | 29 | 315 | 3.0 | 3.0 | 0.00 | 0.37 | 0.31 | 73 | 1023.0 |
| 20260506233303 | 29 | 315 | 2.0 | 2.0 | 0.00 | 0.37 | 0.31 | 74 | 1022.7 |
| 20260506232803 | 30 | 315 | 3.0 | 3.0 | 0.00 | 0.37 | 0.31 | 76 | 1022.7 |
| 20260506232306 | 30 | 337 | 2.0 | 3.0 | 0.00 | 0.37 | 0.31 | 78 | 1022.7 |
| 20260506231803 | 30 | 0 | 2.0 | 3.0 | 0.00 | 0.37 | 0.31 | 77 | 1022.7 |
| 20260506230802 | 30 | 0 | 3.0 | 5.0 | 0.00 | 0.37 | 0.31 | 76 | 1022.6 |
| 20260506230303 | 31 | 0 | 4.0 | 5.0 | 0.00 | 0.37 | 0.31 | 76 | 1022.4 |
| 20260506225803 | 31 | 0 | 5.0 | 6.0 | 0.00 | 0.37 | 0.31 | 74 | 1022.4 |
| 20260506224803 | 31 | 23 | 4.0 | 5.0 | 0.00 | 0.37 | 0.31 | 70 | 1022.3 |
| 20260506223802 | 31 | 45 | 4.0 | 5.0 | 0.00 | 0.37 | 0.31 | 69 | 1022.3 |
| 20260506222803 | 33 | 45 | 4.0 | 5.0 | 0.00 | 0.37 | 0.31 | 65 | 1022.3 |
| 20260506222305 | 34 | 22 | 3.0 | 5.0 | 0.00 | 0.37 | 0.31 | 64 | 1022.3 |
| 20260506221303 | 33 | 0 | 3.0 | 5.0 | 0.00 | 0.37 | 0.31 | 74 | 1022.3 |
| 20260506220803 | 32 | 0 | 5.0 | 7.0 | 0.00 | 0.37 | 0.31 | 76 | 1022.3 |
| 20260506220303 | 32 | 0 | 6.0 | 8.0 | 0.00 | 0.37 | 0.31 | 75 | 1022.3 |
| 20260506215802 | 32 | 0 | 6.0 | 8.0 | 0.00 | 0.37 | 0.31 | 73 | 1022.3 |
| 20260506215306 | 33 | 0 | 6.0 | 8.0 | 0.01 | 0.37 | 0.31 | 72 | 1022.3 |
| 20260506214803 | 34 | 0 | 5.0 | 6.0 | 0.01 | 0.37 | 0.31 | 70 | 1022.3 |
| 20260506214303 | 35 | 0 | 3.0 | 6.0 | 0.01 | 0.37 | 0.31 | 68 | 1022.3 |
| 20260506213803 | 37 | 337 | 5.0 | 7.0 | 0.01 | 0.37 | 0.31 | 62 | 1022.6 |
| 20260506213303 | 37 | 315 | 5.0 | 5.0 | 0.02 | 0.37 | 0.31 | 59 | 1022.3 |
| 20260506212803 | 37 | 270 | 1.0 | 2.0 | 0.02 | 0.37 | 0.31 | 60 | 1022.6 |
| 20260506212306 | 38 | 270 | 2.0 | 2.0 | 0.02 | 0.37 | 0.31 | 57 | 1022.4 |
| 20260506211802 | 39 | 270 | 0.0 | 1.0 | 0.02 | 0.37 | 0.31 | 55 | 1022.6 |
| 20260506210803 | 37 | 270 | 0.0 | 0.0 | 0.03 | 0.37 | 0.31 | 58 | 1022.3 |
| 20260506210304 | 36 | 270 | 0.0 | 0.0 | 0.04 | 0.37 | 0.31 | 63 | 1022.3 |